Weather History for KBMI - October, 2010

Change the Weather History Date:

Friday, October 22, 2010

  Actual Average Record
Temperature  
Mean Temperature 51 °F -  
Max Temperature 68 °F 80 °F 80 °F (1978)
Min Temperature 34 °F 58 °F 28 °F (1997)
Degree Days  
Heating Degree Days 14    
Growing Degree Days 1 (Base 50)    
Moisture  
Dew Point 32 °F    
Average Humidity 44    
Maximum Humidity 73    
Minimum Humidity 25    
Precipitation  
Precipitation 0.00 in - - ()
Sea Level Pressure  
Sea Level Pressure 30.11 in    
Wind  
Wind Speed 7 mph (South)    
Max Wind Speed 17 mph    
Max Gust Speed -    
Visibility 10 miles    
Events      
Averages and records for this station are not official NWS values.
T = Trace of Precipitation, MM = Missing Value Source: NWS Daily Summary

Daily Weather History Graph

Daily Weather History Graph

Search for Another Location

Airport or City:

Trip Planner

Search our weather history database for the weather conditions in past years. The results will help you decide how hot, cold, wet, or windy it might be!

Date:

Astronomy

Oct. 22, 2010 Rise Set
Actual Time 7:14 AM CDT 6:05 PM CDT
Civil Twilight 6:46 AM CDT 6:33 PM CDT
Nautical Twilight 6:14 AM CDT 7:04 PM CDT
Astronomical Twilight 5:43 AM CDT 7:36 PM CDT
Moon 5:34 PM CDT (10/22) 6:53 AM CDT (10/22)
Length of Visible Light 11h 46m
Length of Day
10h 51m
Full, 100% of the Moon is Illuminated
Oct 22
Full
Oct 22
Full
Oct 30
Last Quarter
Nov 5
New
Nov 13
First Quarter

Hourly Weather History & Observations

Time (CDT) Temp. Windchill Dew Point Humidity Pressure Visibility Wind Dir Wind Speed Gust Speed Precip Events Conditions
12:56 AM 43.9 °F - 31.1 °F 61% 30.10 in 10.0 mi Calm Calm - N/A   Clear
2:56 AM 43.0 °F 38.8 °F 29.1 °F 58% 30.11 in 10.0 mi NNW 6.9 mph - N/A   Clear
3:56 AM 43.0 °F - 29.1 °F 58% 30.12 in 10.0 mi Calm Calm - N/A   Clear
4:56 AM 39.9 °F - 28.0 °F 63% 30.13 in 10.0 mi Calm Calm - N/A   Clear
5:56 AM 34.9 °F - 27.1 °F 73% 30.16 in 10.0 mi Calm Calm - N/A   Clear
6:56 AM 34.9 °F - 27.1 °F 73% 30.18 in 10.0 mi Calm Calm - N/A   Clear
8:56 AM 45.9 °F 41.7 °F 32.9 °F 61% 30.19 in 10.0 mi South 8.1 mph - N/A   Clear
9:56 AM 52.9 °F - 32.0 °F 45% 30.19 in 10.0 mi SSE 9.2 mph - N/A   Clear
10:56 AM 57.9 °F - 32.0 °F 37% 30.18 in 10.0 mi South 13.8 mph - N/A   Clear
11:56 AM 61.9 °F - 30.0 °F 30% 30.17 in 10.0 mi South 15.0 mph - N/A   Partly Cloudy
12:56 PM 63.0 °F - 30.0 °F 29% 30.14 in 10.0 mi South 12.7 mph - N/A   Scattered Clouds
1:29 PM 64.4 °F - 30.2 °F 28% 30.12 in 10.0 mi South 10.4 mph - N/A   Scattered Clouds
1:56 PM 64.9 °F - 29.1 °F 26% 30.11 in 10.0 mi South 12.7 mph - N/A   Mostly Cloudy
2:56 PM 68.0 °F - 31.1 °F 25% 30.08 in 10.0 mi SSE 16.1 mph - N/A   Partly Cloudy
3:56 PM 68.9 °F - 32.9 °F 26% 30.07 in 9.0 mi South 12.7 mph - N/A   Clear
4:56 PM 68.9 °F - 32.9 °F 26% 30.07 in 10.0 mi South 17.3 mph - N/A   Partly Cloudy
5:56 PM 63.9 °F - 32.9 °F 31% 30.07 in 10.0 mi South 12.7 mph - N/A   Clear
6:56 PM 61.0 °F - 34.9 °F 38% 30.08 in 10.0 mi South 11.5 mph - N/A   Partly Cloudy
7:56 PM 59.0 °F - 34.9 °F 40% 30.07 in 10.0 mi South 11.5 mph - N/A   Partly Cloudy
8:56 PM 57.9 °F - 34.9 °F 42% 30.06 in 10.0 mi South 11.5 mph - N/A   Partly Cloudy
9:56 PM 54.9 °F - 34.9 °F 47% 30.06 in 10.0 mi South 10.4 mph - N/A   Clear
10:56 PM 54.0 °F - 34.9 °F 49% 30.06 in 10.0 mi South 11.5 mph - N/A   Clear
11:56 PM 56.8 °F - 36.0 °F 46% 30.05 in 10.0 mi SSW 11.5 mph - N/A   Clear